Regional Weather Roundup
Issued by NWS Newport/Morehead, NC

Current Version | Previous Version | Graphics & Text | Print | Product List | Glossary Off
Versions: 1 2 3 4 5 6 7 8 9 10 11 12 13 14 15 16 17 18 19 20 21 22 23 24 25 26 27 28 29 30 31 32 33 34 35 36 37 38 39 40 41 42 43 44 45 46 47 48 49 50

000
ASUS42 KMHX 301710
RWRMHX
WEATHER ROUNDUP FOR EASTERN NORTH CAROLINA
NATIONAL WEATHER SERVICE NEWPORT/MOREHEAD CITY NC
100 PM EDT TUE SEP 30 2014

NOTE: "FAIR" INDICATES FEW OR NO CLOUDS BELOW 12,000 FEET
WITH NO SIGNIFICANT WEATHER AND/OR OBSTRUCTIONS TO VISIBILITY

NCZ015>017-031-032-045>047-102-103-301800-
NORTH COAST

CITY           SKY/WX    TMP DP  RH WIND       PRES   REMARKS
EDENTON        MOSUNNY   76  65  69 S8        29.89F
ELIZABETH CITY SUNNY     76  63  64 NE7       29.89F
KITTY HAWK     MOSUNNY   75  63  67 NE9       29.89S
MANTEO         SUNNY     74  64  71 NE10      29.90S

$$

NCZ045>047-081-094-103-104-301800-
CENTRAL COAST

CITY           SKY/WX    TMP DP  RH WIND       PRES   REMARKS
FRISCO         SUNNY     72  65  78 N10       29.87F
SWANQUARTER      N/A     77 N/A N/A NE3G10    29.82F

$$

NCZ095-097-098-100-101-301800-
SOUTHERN COAST

CITY           SKY/WX    TMP DP  RH WIND       PRES   REMARKS
BEAUFORT       SUNNY     78  63  59 N13       29.87F
CEDAR ISLAND     N/A     73 N/A N/A N3G13     29.91S
JACKSONVILLE   MOSUNNY   78  64  61 N10       29.88F
NEWPORT        NOT AVBL
PINEY ISLAND   SUNNY     76  62  62 NE9       29.88F HAZE
WILMINGTON     SUNNY     78  63  59 N10       29.88F


$$

NCZ011>013-027>030-043-044-078>080-089-090>093-098-301800-
COASTAL PLAIN

CITY           SKY/WX    TMP DP  RH WIND       PRES   REMARKS
AHOSKIE        MOSUNNY   69  63  83 N5        29.91F
CLINTON        PTSUNNY   77  66  67 N3        29.90F
ELIZABETHTOWN  PTSUNNY   78  64  61 N3        29.89F
GOLDSBORO      MOSUNNY   76  67  74 CALM      29.88F
GREENVILLE     MOSUNNY   77  63  61 NW3       29.92F
HAVELOCK       SUNNY     78  64  61 NE10      29.88F
KENANSVILLE    MOSUNNY   76  62  61 N5        29.90F
KINSTON        MOSUNNY   77  63  61 CALM      29.90F
NEW BERN       SUNNY     78  63  59 VRB3      29.89F
RICHLANDS      MOSUNNY   77  61  57 NE8       29.88F
ROANOKE RAPIDS NOT AVBL
ROCKY MOUNT    CLOUDY    69  63  81 NW3       29.92F
WASHINGTON     MOSUNNY   75  63  65 N6        29.89F
WHITEVILLE     SUNNY     77  63  60 NE3       29.88F

$$

AMZ130-135-150-152-154-156-158-170-250-252-270-ANZ085-086-088-633-658-670-301800-
MARINE OBSERVATIONS

STATION/POSITION TIME  TEMP    WIND        PRES    WAVE   SWELL
                       AIR SEA DIR/SP/G            HT/PER HT/PER
                 (UTC) (F)     (DEG/KT/KT) (MB)    (FT/S) (FT/S)
CHESAPEAKE LIGHT 1600   70      10/  8/  9 1013.4
BUOY 44014       1700   70 72   40/  6/  8 1011.9    2/ 8   2/ 8
DUCK             1700   71 73   10/  9/ 10 1011.6
2E DUCK          1700                        N/A     2/14   2/14
OREGON INLET     1700   73 73   10/  9/ 13 1011.9
BUOY 44095       1700      73                N/A     3/ 8
20E OREGON INLET NOT AVBL
HATTERAS CG      1700   72 73   20/ 13/ 15 1011.9
DIAMOND BUOY     1700   74     360/ 17/ 21 1010.6    3/ 8   2/ 8
CAPE LOOKOUT     1600   73      30/ 13/ 15 1011.6
BEAUFORT LAB     1700   76 74   20/  7/ 16 1010.9
30 SE NEW RIVER  1700   73 80   30/ 16/ 17 1010.6    3/ 5   2/ 9
5 SE WRIGHTSVILL 1600   69 76   50/ 12/ 14   N/A
BUOY 41002       1559   74 80  150/ 10/ 14 1009.6    3/ 4   2/ 7
BUOY 41004       1700   74 81   20/ 16/ 19 1010.3    4/ 6   2/ 8

$$



USA.gov is the U.S. government's official web portal to all federal, state and local government web resources and services.